User: anonymous   Login
Location: Ostrava
(49.8330°N, 18.2830°E)
Time: 18:55:58
(UTC+02:00)
Language:

Explorer 7 - Orbit

View from above orbital plane
View from above orbital plane
View from above satellite
View from above satellite

Ground track
Ground track

The orbit data is extracted from the following two-line orbital elements,

1 00022U 59009A   15182.15380460  .00001499  00000-0  14158-3 0  9996
2 00022 050.2851 317.5570 0147384 181.1406 178.9224 14.92240629954182
Epoch (UTC): 01 July 2015 03:41:28
Eccentricity: 0.0147384
inclination: 50.2851°
perigee height: 488 km
apogee height: 693 km
right ascension of ascending node: 317.5570°
argument of perigee: 181.1406°
revolutions per day: 14.92240629
mean anomaly at epoch: 178.9224°
orbit number at epoch: 95418

The dashed part of the orbit path shows where the satellite is in the earth's shadow,  

DLR